Williamsport, PA

8:01 PM EDT on May 29, 2017 (GMT -0400)
Williamsport Rgnl

Weather History for KIPT - August, 2013

Change the Weather History Date:

Monday, August 26, 2013

  Actual Average Record
Temperature  
Mean Temperature 76 °F 70 °F  
Max Temperature 89 °F 80 °F 98 °F (1948)
Min Temperature 62 °F 60 °F 42 °F (1944)
Degree Days  
Heating Degree Days 0 1  
Month to date heating degree days 5 2  
Since 1 June heating degree days 14 43  
Since 1 July heating degree days 5 6  
Cooling Degree Days 11 5  
Month to date cooling degree days 135 177  
Year to date cooling degree days 703 610  
Since 1 June cooling degree days 632 567  
Growing Degree Days 26 (Base 50)    
Moisture  
Dew Point 61 °F    
Average Humidity 66    
Maximum Humidity 90    
Minimum Humidity 42    
Precipitation  
Precipitation 0.04 in 0.12 in 1.48 in (1906)
Month to date precipitation 1.70 3.25  
Year to date precipitation 21.56 26.42  
Sea Level Pressure  
Sea Level Pressure 30.07 in    
Wind  
Wind Speed 4 mph (WSW)    
Max Wind Speed 16 mph    
Max Gust Speed 18 mph    
Visibility 10 miles    
Events Rain    
T = Trace of Precipitation, MM = Missing Value Source: NWS Daily Summary

Daily Weather History Graph

Daily Weather History Graph

Search for Another Location

Airport or City:

Trip Planner

Search our weather history database for the weather conditions in past years. The results will help you decide how hot, cold, wet, or windy it might be!

Date:

Astronomy

Aug. 26, 2013 Rise Set
Actual Time 6:28 AM EDT 7:49 PM EDT
Civil Twilight 5:59 AM EDT 8:18 PM EDT
Nautical Twilight 5:25 AM EDT 8:52 PM EDT
Astronomical Twilight 4:48 AM EDT 9:29 PM EDT
Moon 10:54 PM EDT (8/26) 12:31 PM EDT (8/26)
Length of Visible Light 14h 18m
Length of Day
13h 21m
Waning Gibbous, 67% of the Moon is Illuminated
Aug 26
Waning Gibbous
Aug 28
Last Quarter
Sep 5
New
Sep 12
First Quarter
Sep 19
Full

Hourly Weather History & Observations

Time (EDT) Temp. Heat Index Dew Point Humidity Pressure Visibility Wind Dir Wind Speed Gust Speed Precip Events Conditions
12:54 AM 66.0 °F - 57.9 °F 75% 30.21 in 10.0 mi Calm Calm - N/A   Clear
1:54 AM 64.9 °F - 59.0 °F 81% 30.20 in 10.0 mi Calm Calm - N/A   Clear
2:54 AM 63.0 °F - 57.9 °F 84% 30.17 in 10.0 mi Calm Calm - N/A   Clear
3:54 AM 63.0 °F - 59.0 °F 87% 30.16 in 10.0 mi Calm Calm - N/A   Clear
4:54 AM 63.0 °F - 57.9 °F 84% 30.17 in 10.0 mi Calm Calm - N/A   Mostly Cloudy
5:54 AM 63.0 °F - 59.0 °F 87% 30.18 in 10.0 mi Calm Calm - N/A   Overcast
6:54 AM 63.0 °F - 59.0 °F 87% 30.18 in 10.0 mi North 3.5 mph - N/A   Overcast
7:54 AM 64.9 °F - 60.1 °F 84% 30.18 in 10.0 mi Calm Calm - N/A   Mostly Cloudy
8:54 AM 69.1 °F - 60.1 °F 73% 30.17 in 10.0 mi Calm Calm - N/A   Scattered Clouds
9:54 AM 70.0 °F - 59.0 °F 68% 30.16 in 10.0 mi Calm Calm - N/A   Mostly Cloudy
10:54 AM 75.9 °F - 59.0 °F 56% 30.13 in 10.0 mi West 8.1 mph - N/A   Partly Cloudy
11:54 AM 79.0 °F - 60.1 °F 52% 30.11 in 10.0 mi West 8.1 mph - N/A   Mostly Cloudy
12:54 PM 78.1 °F - 62.1 °F 58% 30.09 in 10.0 mi Calm Calm - N/A   Overcast
1:54 PM 86.0 °F 86.3 °F 62.1 °F 44% 30.03 in 10.0 mi West 8.1 mph - N/A   Clear
2:54 PM 84.9 °F 85.0 °F 61.0 °F 44% 30.01 in 10.0 mi SW 5.8 mph - N/A   Clear
3:54 PM 88.0 °F 88.4 °F 62.1 °F 42% 29.97 in 10.0 mi SW 8.1 mph - N/A   Clear
4:54 PM 87.1 °F 87.5 °F 62.1 °F 43% 29.95 in 10.0 mi SW 10.4 mph - N/A   Clear
5:54 PM 86.0 °F 85.7 °F 60.1 °F 41% 29.95 in 10.0 mi West 11.5 mph - N/A   Partly Cloudy
6:54 PM 84.0 °F 84.0 °F 60.1 °F 44% 29.94 in 10.0 mi WSW 10.4 mph - N/A   Mostly Cloudy
7:54 PM 80.1 °F 81.2 °F 62.1 °F 54% 29.94 in 10.0 mi SW 5.8 mph - N/A   Overcast
8:54 PM 80.1 °F 81.5 °F 63.0 °F 56% 29.95 in 10.0 mi West 9.2 mph 18.4 mph 0.00 in Rain Light Rain
9:54 PM 73.0 °F - 66.9 °F 81% 29.97 in 9.0 mi West 6.9 mph - 0.01 in Rain Light Rain
10:54 PM 71.1 °F - 68.0 °F 90% 29.96 in 5.0 mi Calm Calm - 0.03 in   Overcast
11:54 PM 72.0 °F - 68.0 °F 87% 29.94 in 7.0 mi Calm Calm - N/A   Mostly Cloudy